Regional Weather Roundup
Issued by NWS

Home | Current Version | Previous Version | Text Only | Print | Product List | Glossary On
Versions: 1 2 3 4 5 6 7 8 9 10 11 12 13 14 15 16 17 18 19 20 21 22 23 24 25 26
000
ASUS45 KTFX 121410
RWRMT
MONTANA REGIONAL WEATHER ROUNDUP
NATIONAL WEATHER SERVICE GREAT FALLS MT
700 AM MST TUE DEC 12 2017

NOTE: "FAIR" INDICATES FEW OR NO CLOUDS BELOW 12000 FEET WITH NO
SIGNIFICANT WEATHER AND/OR OBSTRUCTIONS TO VISIBILITY.

MTZ001>007-043-121500-
WEST OF THE DIVIDE

CITY           SKY/WX    TMP DP  RH WIND       PRES   REMARKS
KALISPELL      CLOUDY    22  22 100 CALM      30.51F FOG
MISSOULA       CLOUDY    17  13  84 CALM      30.55F FOG
BUTTE          FAIR       6   1  80 CALM      30.42F
MULLAN PASS    FAIR      33   7  33 SW9       30.39S WCI  25
ANACONDA         N/A     10   3  72 CALM      30.44R
DEER LODGE       N/A      9   7  92 CALM      30.47S
EUREKA           N/A     21  18  86 MISG      30.51F
HAMILTON         N/A     10   9  92 CALM      30.53R VSB 1/4
LIBBY            N/A     23  19  86 CALM      30.54R
PLAINS           N/A     25  17  71 SE2       30.51S
RONAN            N/A     24  21  88 CALM      30.51S
$$

MTZ008-052>055-121500-
SOUTHWEST MONTANA

CITY           SKY/WX    TMP DP  RH WIND       PRES   REMARKS
BOZEMAN        FAIR       7   3  84 SE7       30.42S WCI  -5
DILLON         FAIR      24   7  48 S9        30.42F WCI  14
W YELLOWSTONE  FAIR      -8 -11  84 CALM      30.55S
ENNIS          CLOUDY    27  12  54 S10       30.46F WCI  17
THREE FORKS      N/A      4   0  83 S1        30.35F
TWIN BRIDGES     N/A     14   2  59 CALM      30.36F
$$

MTZ009-010-012-014-046-048-049-054-121500-
EAST SLOPES AND CENTRAL MONTANA

CITY           SKY/WX    TMP DP  RH WIND       PRES   REMARKS
CUT BANK       FAIR      49  -6  10 W24G32    30.11S
GREAT FALLS    FAIR      43   4  19 SW23      30.18F
MALMSTROM AFB  FAIR      46   4  18 SW26      30.16F
HELENA         FAIR      13  10  88 CALM      30.41S
BOWMANS CRNR   FAIR      35   8  32 S24       30.20F WCI  23
CHOTEAU          N/A     48 -11   8 SW10      30.15F
FAIRFIELD      FAIR      38   7  27 S18       30.15F WCI  28
POWER          FAIR      34   6  30 SW12      30.16F WCI  26
RAYNESFORD     FAIR      44   4  19 E6        30.18F
ULM            FAIR      34   8  34 S10       30.21F WCI  26
$$

MTZ011-013-016-021-045-047-050-051-121500-
NORTH CENTRAL MONTANA

CITY           SKY/WX    TMP DP  RH WIND       PRES   REMARKS
HAVRE          FAIR      31  14  49 W15       30.10F WCI  20
LEWISTOWN      FAIR      40  18  41 SW17      30.18F
N BAR RANCH    FAIR      45   9  23 NW7       30.18F
CHINOOK          N/A     19  16  86 CALM      30.08F
DENTON         FAIR      42  10  26 SW14      30.11F
GEYSER         FAIR      48   1  14 W24       30.16F
GRASS RANGE    FAIR      44  15  30 W15G22    30.11S
STANFORD       FAIR      53   1  12 W21G30    30.16F
WINIFRED       FAIR      47   9  21 SW14      30.12F
$$

MTZ017>020-022>027-061-062-121500-
NORTHEAST MONTANA

CITY           SKY/WX    TMP DP  RH WIND       PRES   REMARKS
GLASGOW        FAIR      25  19  78 W5        30.07F
GLENDIVE       FAIR      22  19  89 S7        30.09F WCI  13
JORDAN           N/A     25  18  74 W5        30.10F
SIDNEY         FAIR      24  22  91 S8        30.07F WCI  15
WOLF POINT     FAIR      25  21  85 SW9       30.07F WCI  15
MALTA          CLEAR     19  16  86 W7        30.07F WCI  10
PLENTYWOOD       N/A     28  19  69 CALM      29.99F
POPLAR           N/A     25  19  80 CALM      30.07F
SCOBEY           N/A     26  15  63 CALM      29.99F
$$

MTZ028>42-056>058-121500-
SOUTHCENTRAL AND SOUTHEAST MONTANA

CITY           SKY/WX    TMP DP  RH WIND       PRES   REMARKS
BAKER          FAIR      29  21  72 W8        30.11F WCI  21
BILLINGS       FAIR      42  18  37 SW28      30.20F
LIVINGSTON     FAIR      44  16  32 W28G36    30.30F
MILES CITY     FAIR      25  19  78 S8        30.15F WCI  16
BIG TIMBER     CLEAR     43  10  26 SW21      30.28F
FORSYTH          N/A     30  18  59 W7        30.15F WCI  23
ROUNDUP          N/A     38  12  34 S12       30.07F WCI  30
$$

REGIONAL REPORTS...DAKOTAS

CITY           SKY/WX    TMP DP  RH WIND       PRES   REMARKS
WILLISTON      CLEAR     27  21  80 SW3       30.04F
MINOT          FAIR      32  24  72 SW13G24   29.96F WCI  22
DICKINSON      FAIR      30  22  72 W16       30.02F WCI  19
BEACH          FAIR      30  21  69 SW15G22   30.10F WCI  19
CROSBY         FAIR      27  23  86 SW10      29.97F WCI  17
TIOGA          FAIR      28  27  93 W13       30.00F WCI  18
WATFORD CITY   FAIR      27  23  86 SW7       30.04F WCI  19
BISMARCK       FAIR      25  23  92 SW7       30.07F WCI  17
GRAND FORKS    CLOUDY    20  17  88 S12       30.04F WCI   8
FARGO          CLOUDY    20  17  88 S9        30.09F WCI   9
BUFFALO SD       N/A     30  20  66 W12       30.05F WCI  20
RAPID CITY     FAIR      20  10  65 CALM      30.17F
$$

REGIONAL REPORTS...WYOMING/IDAHO/WASHINGTON

CITY           SKY/WX    TMP DP  RH WIND       PRES   REMARKS
GILLETTE       FAIR      38  17  42 CALM      30.21F
SHERIDAN       FAIR      27  16  63 S3        30.21S
BUFFALO WY     FAIR      48   8  19 S3        30.24S
CODY           FAIR      25  17  72 CALM      30.32F
YELLOWSTONE LA   N/A      4   1  88 NW3       30.55S
IDAHO FALLS    FAIR       8   5  87 NW8       30.55S WCI  -4
SALMON         CLOUDY    13  11  92 CALM      30.69R FOG
BOISE          CLOUDY    24  20  84 CALM      30.66F
SPOKANE        LGT SNOW  23  23 100 W6        30.56S FOG     WCI  16
$$

REGIONAL REPORTS...ALBERTA

CITY           SKY/WX    TMP DP  RH WIND       PRES   REMARKS
EDMONTON       CLEAR     37  27  65 W8        29.86S WCI  31
CALGARY        MOCLDY    54   5  14 SW9G21    29.97F
LETHBRIDGE     PTCLDY    54  -2  10 W26G36    30.06F
MEDICINE HAT   PTCLDY    41  12  30 SW16G23   29.97F
$$

REGIONAL REPORTS...SASKATCHEWAN

CITY           SKY/WX    TMP DP  RH WIND       PRES   REMARKS
SWIFT CURRENT  CLEAR     36  19  51 SW13G20   29.92F WCI  27
REGINA         PTCLDY    25  21  86 W8        29.92F WCI  16
SASKATOON      CLEAR     27  23  86 S8        29.84F WCI  18
$$




USA.gov is the U.S. government's official web portal to all federal, state and local government web resources and services.